[[{"header":{"parameterUnit":"m.s-1","parameterCategory":1,"la1":30.2991,"la2":30.254,"lo1":-89.0895,"lo2":-89.0444,"dy":0.0017,"dx":0.0017,"nx":28,"ny":28,"refTime":"2024-08-11T03:00:00:Z","depth":0,"parameterNumber":2,"parameterNumberName":"U-component_of_WINDS"},"data":[0,0,0,0,0,0,0,0,0,0,0,0,0,0,0,0,0,0,0,0,0,0,0,0,0,0,0,0,0,0,0,0,0,0,0,0,0,0,0,0,0,0,0,0,0,0,0,0,0,0,0,0,0,0,0,0,0,0,-1.164,-1.164,0,-1.1674,-1.1675,-1.1675,-1.1597,-1.1595,-1.1592,-1.159,-1.1627,-1.163,-1.1633,0,0,0,0,0,0,0,0,0,0,0,0,0,-1.1508,-1.1511,-1.164,-1.164,-1.1641,-1.1674,-1.1675,-1.1675,-1.1598,-1.1595,-1.1592,-1.1589,-1.1626,-1.1629,-1.1633,0,0,0,0,0,0,0,0,0,0,0,0,0,-1.1556,-1.1512,-1.164,-1.1606,-1.1603,-1.1674,-1.1675,-1.1675,-1.1598,-1.1595,-1.1591,-1.1587,-1.1624,-1.1629,-1.1634,-1.1739,0,0,-1.1649,-1.1651,0,0,0,0,0,0,0,0,-1.1554,-1.1561,-1.1611,-1.1608,-1.1606,-1.1628,-1.1641,-1.1697,-1.1599,-1.16,-1.159,-1.1585,-1.163,-1.1634,-1.1649,-1.1741,-1.1743,-1.1649,-1.1652,-1.1655,-1.1656,0,0,0,0,0,0,0,-1.155,-1.1559,-1.1653,-1.1611,-1.1608,-1.1589,-1.1592,-1.1652,-1.1636,-1.16,-1.1594,-1.1599,-1.1628,-1.1644,-1.1649,-1.1743,-1.1649,-1.1654,-1.1657,-1.1659,-1.1924,-1.1928,0,0,0,0,0,0,-1.1551,-1.1557,-1.1652,-1.1654,-1.157,-1.1595,-1.1598,-1.1624,-1.1635,-1.1633,-1.1603,-1.1596,-1.1638,-1.1644,-1.165,-1.1775,-1.1655,-1.1659,-1.1662,-1.192,-1.1925,-1.1929,0,0,0,0,0,0,-1.1549,-1.156,-1.1651,-1.1604,-1.1614,-1.1601,-1.1631,-1.1627,-1.1643,-1.1637,-1.1634,-1.1622,-1.1635,-1.1643,-1.1718,-1.1775,-1.1661,-1.1666,-1.1915,-1.1921,-1.1927,-1.2025,0,0,0,0,0,0,-1.1545,-1.156,-1.16,-1.1606,-1.1617,-1.1718,-1.1635,-1.163,-1.1652,-1.1643,-1.1655,-1.1653,-1.1633,-1.1711,-1.1723,-1.178,-1.167,-1.191,-1.1918,-1.1925,-1.2017,-1.2034,-1.2049,0,0,0,0,0,-1.1541,-1.1626,-1.1602,-1.1614,-1.1667,-1.1721,-1.1728,-1.1703,-1.1657,-1.1697,-1.1693,-1.1653,-1.1767,-1.1719,-1.1732,-1.1792,-1.1906,-1.1916,-1.1924,-1.201,-1.2031,-1.2048,0,0,0,0,0,0,-1.1628,-1.1627,-1.16,-1.169,-1.1706,-1.1708,-1.1758,-1.1726,-1.1756,-1.1747,-1.1714,-1.1717,-1.1798,-1.1802,-1.1749,-1.1894,-1.1829,-1.1841,-1.1889,-1.1909,-1.1925,-1.1923,-1.1674,0,0,0,0,0,-1.1658,-1.1702,-1.1698,-1.1778,-1.1788,-1.1772,-1.1795,-1.1774,-1.179,-1.1796,-1.1798,-1.1815,-1.1855,-1.1882,-1.1918,-1.2016,-1.2018,-1.2064,-1.2079,-1.2093,-1.2104,-1.2157,-1.2177,-1.1959,-1.1959,-1.1959,0,0,-1.172,-1.1724,-1.1754,-1.1796,-1.1806,-1.1853,-1.1778,-1.1831,-1.1866,-1.1805,-1.1875,-1.1877,-1.1894,-1.1981,-1.2019,-1.1987,-1.2164,-1.2104,-1.2115,-1.2119,-1.2168,-1.2189,-1.2207,-1.1965,-1.1964,-1.1963,0,0,-1.1857,-1.1865,-1.1932,-1.1944,-1.196,-1.1949,-1.1965,-1.1972,-1.1971,-1.2041,-1.1996,-1.2036,-1.2105,-1.212,-1.2136,-1.2278,-1.2243,-1.2291,-1.2374,-1.2426,-1.2443,-1.2458,-1.251,-1.2529,-1.2302,-1.2302,-1.2302,0,-1.1932,-1.2001,-1.1971,-1.2027,-1.2047,-1.1993,-1.2061,-1.2074,-1.2102,-1.2117,-1.2079,-1.2165,-1.2173,-1.2263,-1.2297,-1.2312,-1.233,-1.229,-1.2443,-1.2458,-1.2472,-1.2521,-1.254,-1.2308,-1.2307,-1.2306,-1.2306,0,-1.2093,-1.2142,-1.2194,-1.2222,-1.2248,-1.231,-1.229,-1.2319,-1.2295,-1.2288,-1.236,-1.2368,-1.2404,-1.2424,-1.2402,-1.2511,-1.249,-1.2448,-1.2382,-1.2499,-1.2544,-1.2563,-1.2316,-1.2314,-1.2312,-1.2311,0,0,-1.2288,-1.2298,-1.2318,-1.233,-1.2344,-1.2381,-1.244,-1.2476,-1.2502,-1.2523,-1.2572,-1.2631,-1.2593,-1.2612,-1.259,-1.2636,-1.2749,-1.2588,-1.2588,-1.2619,-1.287,-1.2903,-1.2925,-1.2724,-1.2728,-1.2731,-1.2869,0,-1.2425,-1.2527,-1.2502,-1.2603,-1.2648,-1.2597,-1.2648,-1.2663,-1.2657,-1.2695,-1.2688,-1.2731,-1.2677,-1.2688,-1.273,-1.2726,-1.2799,-1.2715,-1.2771,-1.2774,-1.277,-1.2948,-1.2982,-1.3113,-1.2887,-1.289,-1.2892,0,-1.2598,-1.2625,-1.2732,-1.2738,-1.2756,-1.2803,-1.2833,-1.2869,-1.2885,-1.2877,-1.2898,-1.2867,-1.2927,-1.2859,-1.294,-1.2884,-1.2905,-1.2906,-1.2911,-1.2916,-1.2841,-1.296,-1.3154,-1.3174,-1.2919,-1.2917,-1.2915,0,-1.2731,-1.2794,-1.2866,-1.2877,-1.2886,-1.2921,-1.2926,-1.2937,-1.296,-1.2987,-1.3002,-1.3035,-1.3053,-1.308,-1.3059,-1.3012,-1.3144,-1.3075,-1.3141,-1.3142,-1.3172,-1.3171,-1.3374,-1.3184,-1.3184,-1.3183,-1.3183,0,-1.2887,-1.2955,-1.2925,-1.297,-1.3044,-1.3013,-1.3087,-1.3087,-1.3097,-1.3141,-1.3098,-1.314,-1.3109,-1.3149,-1.3133,-1.3203,-1.3211,-1.3208,-1.3203,-1.3212,-1.3213,-1.3227,-1.3217,-1.3189,-1.3187,-1.3186,-1.3186,0,-1.3049,-1.3032,-1.3107,-1.3109,-1.3111,-1.3165,-1.3167,-1.3208,-1.3199,-1.3255,-1.3266,-1.3252,-1.3296,-1.3278,-1.3324,-1.3314,-1.3404,-1.3387,-1.3399,-1.3395,-1.3463,-1.3457,-1.3683,-1.3711,-1.3502,-1.3504,-1.3506,0,-1.315,-1.3201,-1.3208,-1.3234,-1.3242,-1.3284,-1.3307,-1.3279,-1.3305,-1.3326,-1.3365,-1.3405,-1.3436,-1.3508,-1.3503,-1.3538,-1.3522,-1.3598,-1.3527,-1.3535,-1.3524,-1.3522,-1.3527,-1.3613,-1.3616,-1.3618,-1.3619,0,-1.3332,-1.3321,-1.3356,-1.3388,-1.3417,-1.3441,-1.3461,-1.3485,-1.3457,-1.3488,-1.3533,-1.3557,-1.3604,-1.3644,-1.3676,-1.3681,-1.3647,-1.3642,-1.3659,-1.367,-1.3675,-1.3674,-1.3439,-1.3637,-1.3635,-1.3634,-1.3633,-1.3632,-1.3467,-1.351,-1.3522,-1.3562,-1.3574,-1.3594,-1.3633,-1.3628,-1.3665,-1.3701,-1.3682,-1.3733,-1.3747,-1.3785,-1.3795,-1.3835,-1.3805,-1.383,-1.3837,-1.3844,-1.3853,-1.3668,-1.3841,-1.384,-1.384,-1.3839,-1.3839,0,-1.3648,-1.3653,-1.369,-1.3719,-1.3751,-1.3714,-1.3735,-1.3764,-1.381,-1.3825,-1.3856,-1.3907,-1.3946,-1.3943,-1.3979,-1.4012,-1.3997,-1.4022,-1.402,-1.4022,-1.3877,-1.3859,-1.4034,-1.4034,-1.4034,-1.4034,-1.4034,-1.4034,-1.3745,-1.3816,-1.3806,-1.3882,-1.3886,-1.3937,-1.3951,-1.397,-1.3982,-1.404,-1.4073,-1.407,-1.4078,-1.4114,-1.4148,-1.4146,-1.4162,-1.4194,-1.4186,-1.4052,-1.4032,-1.4014,-1.3997,-1.4197,-1.4198,-1.4328,-1.4329,-1.433]},{"header":{"parameterUnit":"m.s-1","parameterCategory":1,"la1":30.2991,"la2":30.254,"lo1":-89.0895,"lo2":-89.0444,"dy":0.0017,"dx":0.0017,"nx":28,"ny":28,"refTime":"2024-08-11T03:00:00:Z","depth":0,"parameterNumber":3,"parameterNumberName":"V-component_of_WINDS"},"data":[0,0,0,0,0,0,0,0,0,0,0,0,0,0,0,0,0,0,0,0,0,0,0,0,0,0,0,0,0,0,0,0,0,0,0,0,0,0,0,0,0,0,0,0,0,0,0,0,0,0,0,0,0,0,0,0,0,0,-2.9205,-2.9205,0,-2.9213,-2.9213,-2.9213,-2.9179,-2.9178,-2.9177,-2.9176,-2.9184,-2.9185,-2.9186,0,0,0,0,0,0,0,0,0,0,0,0,0,-2.9159,-2.916,-2.9205,-2.9205,-2.9205,-2.9213,-2.9213,-2.9213,-2.9179,-2.9178,-2.9177,-2.9176,-2.9184,-2.9185,-2.9186,0,0,0,0,0,0,0,0,0,0,0,0,0,-2.9174,-2.9161,-2.9205,-2.9189,-2.9188,-2.9213,-2.9213,-2.9213,-2.918,-2.9178,-2.9177,-2.9175,-2.9183,-2.9185,-2.9187,-2.9227,0,0,-2.9192,-2.9192,0,0,0,0,0,0,0,0,-2.9174,-2.9176,-2.9192,-2.9191,-2.9189,-2.9194,-2.92,-2.9218,-2.918,-2.9183,-2.9176,-2.9175,-2.9188,-2.919,-2.9194,-2.9227,-2.9227,-2.9192,-2.9193,-2.9194,-2.9194,0,0,0,0,0,0,0,-2.9173,-2.9176,-2.9208,-2.9192,-2.919,-2.9181,-2.9182,-2.9203,-2.9194,-2.9183,-2.918,-2.9182,-2.9187,-2.9193,-2.9194,-2.9228,-2.9192,-2.9193,-2.9194,-2.9195,-2.9291,-2.9293,0,0,0,0,0,0,-2.9174,-2.9175,-2.9208,-2.9209,-2.9178,-2.9183,-2.9184,-2.9194,-2.9194,-2.9192,-2.9183,-2.918,-2.9191,-2.9192,-2.9194,-2.9239,-2.9194,-2.9195,-2.9196,-2.929,-2.9292,-2.9293,0,0,0,0,0,0,-2.9173,-2.9177,-2.9208,-2.9191,-2.9194,-2.9186,-2.9197,-2.9195,-2.92,-2.9194,-2.9192,-2.919,-2.9189,-2.9192,-2.9218,-2.9239,-2.9196,-2.9197,-2.9288,-2.929,-2.9292,-2.9331,0,0,0,0,0,0,-2.9172,-2.9177,-2.9193,-2.9192,-2.9195,-2.9232,-2.9198,-2.9196,-2.9203,-2.9199,-2.92,-2.9199,-2.9189,-2.9216,-2.922,-2.9241,-2.9199,-2.9286,-2.9289,-2.9292,-2.9328,-2.9335,-2.934,0,0,0,0,0,-2.917,-2.9204,-2.9194,-2.9198,-2.9215,-2.9234,-2.9236,-2.9223,-2.9205,-2.922,-2.9216,-2.9199,-2.9237,-2.9219,-2.9223,-2.9245,-2.9285,-2.9288,-2.9291,-2.9325,-2.9333,-2.934,0,0,0,0,0,0,-2.9208,-2.9203,-2.9192,-2.9227,-2.9231,-2.9228,-2.9247,-2.9233,-2.9242,-2.9238,-2.9222,-2.9223,-2.9251,-2.9251,-2.9231,-2.9283,-2.9257,-2.9262,-2.9282,-2.9289,-2.9295,-2.9294,-2.92,0,0,0,0,0,-2.922,-2.9236,-2.9231,-2.9262,-2.9265,-2.9256,-2.9263,-2.9253,-2.9257,-2.9258,-2.9256,-2.926,-2.9272,-2.9281,-2.9293,-2.9328,-2.9327,-2.9345,-2.9351,-2.9356,-2.936,-2.9377,-2.9384,-2.9305,-2.9305,-2.9304,0,0,-2.9246,-2.9245,-2.9257,-2.927,-2.9272,-2.9287,-2.9257,-2.9276,-2.9287,-2.9261,-2.9285,-2.9284,-2.9287,-2.9318,-2.9331,-2.9318,-2.9382,-2.9361,-2.9365,-2.9366,-2.9381,-2.9388,-2.9395,-2.9307,-2.9307,-2.9306,0,0,-2.93,-2.9302,-2.9327,-2.9329,-2.9332,-2.9326,-2.9332,-2.9331,-2.9328,-2.9353,-2.9333,-2.9346,-2.9369,-2.9371,-2.9375,-2.9428,-2.9412,-2.9433,-2.9464,-2.9481,-2.9487,-2.9492,-2.9509,-2.9516,-2.9437,-2.9437,-2.9437,0,-2.9332,-2.9355,-2.9342,-2.9361,-2.9366,-2.9343,-2.9367,-2.937,-2.9377,-2.9381,-2.9367,-2.9393,-2.9394,-2.9423,-2.9436,-2.9441,-2.9446,-2.9432,-2.9487,-2.9492,-2.9497,-2.9513,-2.952,-2.9439,-2.9439,-2.9439,-2.9438,0,-2.9392,-2.9409,-2.9428,-2.9434,-2.9442,-2.9464,-2.9453,-2.9462,-2.9452,-2.9446,-2.947,-2.947,-2.948,-2.9487,-2.9477,-2.9514,-2.9506,-2.949,-2.9464,-2.9507,-2.9522,-2.9528,-2.9442,-2.9442,-2.9441,-2.944,0,0,-2.9471,-2.9468,-2.9475,-2.9477,-2.9478,-2.949,-2.951,-2.9519,-2.9527,-2.9532,-2.9547,-2.9567,-2.9551,-2.9556,-2.9546,-2.956,-2.96,-2.9542,-2.9541,-2.9551,-2.9639,-2.965,-2.9657,-2.959,-2.9591,-2.9592,-2.9638,0,-2.9522,-2.9556,-2.9543,-2.9578,-2.9591,-2.9569,-2.9586,-2.9588,-2.9584,-2.9594,-2.9589,-2.9602,-2.9581,-2.9584,-2.9597,-2.9592,-2.9617,-2.9589,-2.9602,-2.9603,-2.9601,-2.9665,-2.9677,-2.9721,-2.9644,-2.9645,-2.9646,0,-2.9587,-2.9593,-2.9629,-2.9625,-2.9631,-2.9646,-2.9653,-2.9664,-2.9665,-2.9661,-2.9665,-2.9652,-2.967,-2.9645,-2.9669,-2.965,-2.9655,-2.9653,-2.9655,-2.9654,-2.9626,-2.9665,-2.9735,-2.9741,-2.9655,-2.9654,-2.9654,0,-2.9637,-2.9656,-2.9678,-2.9681,-2.9678,-2.9689,-2.9688,-2.9688,-2.9694,-2.97,-2.9703,-2.9712,-2.9716,-2.9722,-2.971,-2.9694,-2.9735,-2.971,-2.9731,-2.9731,-2.9739,-2.9739,-2.9809,-2.9746,-2.9746,-2.9746,-2.9746,0,-2.9695,-2.9717,-2.9701,-2.9715,-2.9738,-2.9724,-2.9747,-2.9744,-2.9744,-2.9756,-2.9738,-2.975,-2.9735,-2.9745,-2.9736,-2.9756,-2.9759,-2.9755,-2.9752,-2.9755,-2.9756,-2.9757,-2.9753,-2.9747,-2.9747,-2.9747,-2.9746,0,-2.9755,-2.9745,-2.9768,-2.9763,-2.9763,-2.978,-2.9775,-2.9788,-2.9781,-2.9797,-2.98,-2.979,-2.9801,-2.979,-2.9801,-2.9795,-2.9821,-2.9815,-2.9821,-2.9818,-2.9839,-2.9836,-2.9911,-2.992,-2.9853,-2.9853,-2.9854,0,-2.9792,-2.9808,-2.9804,-2.9811,-2.9811,-2.9822,-2.9828,-2.9814,-2.982,-2.9822,-2.9833,-2.9843,-2.9849,-2.9867,-2.9861,-2.9868,-2.9861,-2.9887,-2.9862,-2.9864,-2.9859,-2.9857,-2.9858,-2.9891,-2.9892,-2.9893,-2.9893,0,-2.9857,-2.9851,-2.9859,-2.9865,-2.9872,-2.9876,-2.9879,-2.9886,-2.9871,-2.9879,-2.989,-2.9895,-2.9905,-2.9913,-2.9919,-2.9918,-2.9902,-2.9901,-2.9906,-2.9909,-2.9911,-2.9908,-2.9832,-2.9899,-2.9899,-2.9898,-2.9898,-2.9898,-2.9905,-2.9917,-2.9916,-2.9925,-2.9926,-2.9928,-2.9939,-2.9933,-2.9942,-2.9948,-2.994,-2.9952,-2.9952,-2.9957,-2.9958,-2.9967,-2.9956,-2.9964,-2.9965,-2.9967,-2.9969,-2.9911,-2.9968,-2.9968,-2.9968,-2.9968,-2.9968,0,-2.9967,-2.9964,-2.9973,-2.9977,-2.9984,-2.997,-2.9972,-2.9978,-2.9989,-2.999,-2.9997,-3.0008,-3.0016,-3.001,-3.0016,-3.0025,-3.0018,-3.0027,-3.0025,-3.0025,-2.9979,-2.9973,-3.0032,-3.0032,-3.0032,-3.0032,-3.0032,-3.0032,-3.0,-3.0019,-3.0013,-3.0032,-3.0029,-3.0041,-3.0043,-3.0045,-3.0045,-3.0058,-3.0064,-3.006,-3.0058,-3.0064,-3.007,-3.0068,-3.0071,-3.0082,-3.0077,-3.0034,-3.0028,-3.0022,-3.0016,-3.0083,-3.0083,-3.0121,-3.0122,-3.0122]}]]